GW3780 Weather Reports


Display with metric or nautical units.
time (UTC)temp
F
wind
direction
speed
MPH
gust
MPH
rain 1hr
in
rain 24hr
in
rain mn
in
humidity
%
barometer
mb
20260503021554 52 32 0.0 1.0 0.00 0.00 0.00 67 1014.6
20260503021051 52 29 1.0 2.0 0.00 0.00 0.00 67 1014.7
20260503020548 52 279 1.0 1.0 0.00 0.00 0.00 67 1014.7
20260503020045 52 358 1.0 1.0 0.00 0.00 0.00 69 1014.8
20260503015541 52 60 0.0 0.0 0.00 0.00 0.00 68 1014.6
20260503015039 52 341 0.0 0.0 0.00 0.00 0.00 67 1014.6
20260503014535 52 22 0.0 0.0 0.00 0.00 0.00 68 1014.7
20260503014033 52 7 0.0 1.0 0.00 0.00 0.00 66 1014.6
20260503013530 52 3 1.0 1.0 0.00 0.00 0.00 67 1014.4
20260503013027 53 6 0.0 1.0 0.00 0.00 0.00 66 1014.7
20260503012524 53 11 0.0 0.0 0.00 0.00 0.00 66 1014.5
20260503012021 53 339 0.0 1.0 0.00 0.00 0.00 65 1014.3
20260503011517 53 46 0.0 1.0 0.00 0.00 0.00 65 1014.3
20260503011015 53 245 0.0 0.0 0.00 0.00 0.00 66 1014.0
20260503010511 53 321 0.0 2.0 0.00 0.00 0.00 66 1014.2
20260503010009 53 317 0.0 2.0 0.00 0.00 0.00 66 1014.1
20260503005506 53 52 0.0 1.0 0.00 0.00 0.00 63 1014.0
20260503005003 53 353 1.0 2.0 0.00 0.00 0.00 64 1014.1
20260503004459 54 315 0.0 2.0 0.00 0.00 0.00 63 1014.1
20260503003957 54 338 1.0 2.0 0.00 0.00 0.00 59 1013.9
20260503003453 54 0 0.0 1.0 0.00 0.00 0.00 63 1013.8
20260503002950 54 35 0.0 1.0 0.00 0.00 0.00 62 1014.1
20260503002448 54 5 1.0 1.0 0.00 0.00 0.00 62 1013.8
20260503001943 53 60 0.0 1.0 0.00 0.00 0.00 62 1013.7
20260503001441 53 57 0.0 1.0 0.00 0.00 0.00 62 1013.8
20260503000938 53 12 0.0 2.0 0.00 0.00 0.00 62 1013.8
20260503000437 53 55 0.0 1.0 0.00 0.00 0.00 63 1013.5
20260502235932 54 345 0.0 1.0 0.00 0.00 0.00 63 1013.4
20260502235429 54 354 1.0 2.0 0.00 0.00 0.00 59 1013.4
20260502234927 54 336 0.0 1.0 0.00 0.00 0.00 59 1013.5
20260502234423 55 13 0.0 1.0 0.00 0.00 0.00 61 1013.1
20260502233920 55 38 0.0 2.0 0.00 0.00 0.00 59 1013.2
20260502233415 56 357 1.0 2.0 0.00 0.00 0.00 56 1013.1
20260502232913 56 285 1.0 2.0 0.00 0.00 0.00 53 1013.0
20260502232409 57 66 0.0 2.0 0.00 0.00 0.00 51 1013.0
20260502231906 57 72 0.0 1.0 0.00 0.00 0.00 50 1012.8
20260502231403 57 332 1.0 2.0 0.00 0.00 0.00 49 1013.0
20260502230900 57 318 0.0 2.0 0.00 0.00 0.00 50 1012.9
20260502230354 57 299 0.0 3.0 0.00 0.00 0.00 48 1012.7
20260502225850 58 326 0.0 2.0 0.00 0.00 0.00 49 1012.7
20260502225347 58 38 0.0 2.0 0.00 0.00 0.00 47 1012.9
20260502224844 58 334 1.0 3.0 0.00 0.00 0.00 47 1012.4
20260502224340 58 331 2.0 2.0 0.00 0.00 0.00 47 1012.6
20260502223837 58 8 1.0 2.0 0.00 0.00 0.00 47 1012.5
20260502223335 58 321 2.0 2.0 0.00 0.00 0.00 46 1012.7
20260502222832 58 341 2.0 2.0 0.00 0.00 0.00 46 1012.6
20260502222330 59 148 3.0 3.0 0.00 0.00 0.00 46 1012.8
20260502221825 59 85 0.0 2.0 0.00 0.00 0.00 46 1012.6
20260502221322 58 5 2.0 6.0 0.00 0.00 0.00 44 1012.7
20260502220820 59 130 3.0 4.0 0.00 0.00 0.00 43 1013.0
20260502220315 59 287 0.0 2.0 0.00 0.00 0.00 45 1012.9
20260502215812 59 130 0.0 2.0 0.00 0.00 0.00 43 1012.9
20260502215309 60 50 0.0 3.0 0.00 0.00 0.00 43 1012.9
20260502214806 59 301 2.0 3.0 0.00 0.00 0.00 45 1012.9
20260502214303 59 345 0.0 2.0 0.00 0.00 0.00 43 1012.9
20260502213800 59 330 3.0 3.0 0.00 0.00 0.00 43 1012.8
20260502213257 60 6 3.0 4.0 0.00 0.00 0.00 42 1013.0
20260502212756 60 313 2.0 3.0 0.00 0.00 0.00 43 1012.9
20260502212254 60 29 3.0 6.0 0.00 0.00 0.00 41 1012.7
20260502211749 60 83 1.0 2.0 0.00 0.00 0.00 42 1012.8
20260502211246 60 337 1.0 5.0 0.00 0.00 0.00 43 1012.7
20260502210744 60 283 0.0 4.0 0.00 0.00 0.00 43 1012.7
20260502210241 59 8 1.0 3.0 0.00 0.00 0.00 45 1012.6
20260502205738 59 347 1.0 3.0 0.00 0.00 0.00 45 1012.8
20260502205234 59 47 1.0 4.0 0.00 0.00 0.00 45 1012.4
20260502204732 59 298 2.0 2.0 0.00 0.00 0.00 46 1012.7
20260502204229 59 154 1.0 4.0 0.00 0.00 0.00 44 1012.7
20260502203726 59 163 2.0 3.0 0.00 0.00 0.00 45 1012.8
20260502203224 59 269 0.0 2.0 0.00 0.00 0.00 44 1012.8
20260502202717 59 336 0.0 2.0 0.00 0.00 0.00 44 1012.7
20260502202216 59 328 1.0 3.0 0.00 0.00 0.00 43 1013.0
20260502201713 60 352 2.0 5.0 0.00 0.00 0.00 43 1013.0
20260502201210 59 310 0.0 4.0 0.00 0.00 0.00 44 1012.8
20260502200706 59 130 0.0 2.0 0.00 0.00 0.00 43 1013.1
20260502200202 60 329 2.0 2.0 0.00 0.00 0.00 45 1013.1
20260502195701 60 328 2.0 2.0 0.00 0.00 0.00 45 1012.9
20260502195157 59 53 2.0 2.0 0.00 0.00 0.00 44 1012.8
20260502194654 60 350 2.0 4.0 0.00 0.00 0.00 44 1013.2
20260502194150 60 309 0.0 3.0 0.00 0.00 0.00 45 1012.9
20260502193647 60 324 1.0 3.0 0.00 0.00 0.00 42 1013.0
20260502193144 60 356 1.0 3.0 0.00 0.00 0.00 45 1013.2
20260502192639 60 283 0.0 4.0 0.00 0.00 0.00 44 1013.3
20260502192137 60 281 1.0 4.0 0.00 0.00 0.00 44 1013.1
20260502191634 60 125 1.0 2.0 0.00 0.00 0.00 43 1013.3
20260502191131 60 322 1.0 2.0 0.00 0.00 0.00 44 1013.3
20260502190629 60 335 2.0 3.0 0.00 0.00 0.00 44 1013.5
20260502190127 60 122 4.0 7.0 0.00 0.00 0.00 43 1013.5
20260502185621 59 337 1.0 5.0 0.00 0.00 0.00 44 1013.6
20260502185118 60 328 2.0 3.0 0.00 0.00 0.00 43 1013.8
20260502184614 59 338 3.0 4.0 0.00 0.00 0.00 44 1014.0
20260502184109 59 114 2.0 4.0 0.00 0.00 0.00 44 1013.8
20260502183606 59 347 5.0 5.0 0.00 0.00 0.00 43 1013.8
20260502183102 59 319 2.0 3.0 0.00 0.00 0.00 43 1013.8
20260502182557 59 311 2.0 4.0 0.00 0.00 0.00 43 1014.0
20260502182053 59 327 2.0 3.0 0.00 0.00 0.00 45 1014.2
20260502181551 59 339 5.0 5.0 0.00 0.00 0.00 42 1014.3
20260502181050 60 139 2.0 4.0 0.00 0.00 0.00 43 1014.2
20260502180546 60 142 2.0 3.0 0.00 0.00 0.00 46 1014.4
20260502170500 56 341 0.0 4.0 0.00 0.00 0.00 48 1015.5
20260502163944 56 6 1.0 3.0 0.00 0.00 0.00 51 1015.5
20260502163439 55 196 0.0 4.0 0.00 0.00 0.00 49 1015.4
20260502162937 55 137 3.0 3.0 0.00 0.00 0.00 49 1015.6
20260502162434 55 340 4.0 4.0 0.00 0.00 0.00 49 1015.7
20260502161931 55 107 2.0 4.0 0.00 0.00 0.00 49 1015.5
20260502161427 55 271 0.0 4.0 0.00 0.00 0.00 51 1015.7
20260502160925 55 293 3.0 4.0 0.00 0.00 0.00 50 1015.9
20260502160423 55 290 0.0 4.0 0.00 0.00 0.00 51 1015.6
20260502151855 54 327 2.0 6.0 0.00 0.00 0.00 54 1015.8
20260502151351 54 156 0.0 3.0 0.00 0.00 0.00 53 1015.8
20260502150849 54 316 0.0 4.0 0.00 0.00 0.00 54 1015.8
20260502150345 54 89 0.0 3.0 0.00 0.00 0.00 55 1015.8
20260502130734 52 331 2.0 3.0 0.00 0.00 0.00 67 1015.4
20260502130231 52 329 0.0 3.0 0.00 0.00 0.00 69 1015.4
20260502123717 52 320 2.0 2.0 0.00 0.00 0.00 71 1015.1
20260502123214 52 155 2.0 3.0 0.00 0.00 0.00 71 1014.8
20260502122710 52 336 2.0 3.0 0.00 0.00 0.00 73 1015.0
20260502122207 52 18 1.0 2.0 0.00 0.00 0.00 75 1014.9
20260502121705 51 22 1.0 3.0 0.00 0.00 0.00 76 1015.0
20260502121203 51 318 0.0 2.0 0.00 0.00 0.00 76 1015.0
20260502120659 51 49 0.0 4.0 0.00 0.00 0.00 76 1014.7
20260502120156 51 341 0.0 2.0 0.00 0.00 0.00 77 1014.8
20260502115654 51 35 0.0 2.0 0.00 0.00 0.00 78 1014.7
20260502115149 51 133 0.0 2.0 0.00 0.00 0.00 78 1014.9
20260502114646 51 63 1.0 3.0 0.00 0.00 0.00 78 1015.0
20260502114143 51 91 3.0 4.0 0.00 0.00 0.00 79 1014.8
20260502113640 51 202 1.0 5.0 0.00 0.00 0.00 80 1014.9
20260502113138 51 121 2.0 2.0 0.00 0.00 0.00 81 1014.8
20260502112636 51 43 2.0 3.0 0.00 0.00 0.00 81 1014.8
20260502112133 51 349 0.0 3.0 0.00 0.00 0.00 81 1014.8
20260502111631 51 64 0.0 2.0 0.00 0.00 0.00 81 1014.8
20260502111128 51 342 0.0 2.0 0.00 0.00 0.00 81 1014.7
20260502110626 51 30 1.0 4.0 0.00 0.00 0.00 80 1014.9
20260502110123 51 341 1.0 3.0 0.00 0.00 0.00 80 1014.8
20260502105620 51 38 0.0 3.0 0.00 0.00 0.00 81 1014.8
20260502105117 51 345 1.0 2.0 0.00 0.00 0.00 81 1014.8
20260502104614 51 6 1.0 2.0 0.00 0.00 0.00 81 1014.7
20260502104112 50 49 1.0 2.0 0.00 0.00 0.00 82 1014.7
20260502103609 50 104 0.0 2.0 0.00 0.00 0.00 82 1014.6
20260502103108 50 122 0.0 2.0 0.00 0.00 0.00 83 1014.8
20260502102604 50 131 0.0 2.0 0.00 0.00 0.00 83 1014.6
20260502102101 50 17 0.0 2.0 0.00 0.00 0.00 83 1014.6
20260502101559 50 0 2.0 2.0 0.00 0.00 0.00 83 1014.4
20260502101057 50 50 1.0 2.0 0.00 0.00 0.00 83 1014.4
20260502100555 50 47 1.0 2.0 0.00 0.00 0.00 83 1014.2
20260502091529 50 343 0.0 2.0 0.00 0.00 0.00 84 1014.0
20260502091027 50 345 1.0 2.0 0.00 0.00 0.00 85 1014.0
20260502090524 51 347 0.0 2.0 0.00 0.00 0.00 85 1014.2
20260502071418 51 327 0.0 1.0 0.00 0.00 0.00 85 1013.4
20260502070916 51 10 1.0 2.0 0.00 0.00 0.00 85 1013.4
20260502070414 51 12 0.0 1.0 0.00 0.00 0.00 85 1013.5
20260502065912 52 28 1.0 2.0 0.00 0.00 0.00 84 1013.4
20260502065410 52 23 0.0 1.0 0.00 0.00 0.00 84 1013.7
20260502064908 52 51 0.0 2.0 0.00 0.00 0.00 84 1013.6
20260502064406 52 30 2.0 2.0 0.00 0.00 0.00 83 1013.6
20260502063903 52 10 0.0 0.0 0.00 0.00 0.00 83 1013.5
20260502063400 52 11 0.0 2.0 0.00 0.00 0.00 83 1013.5
20260502062857 52 25 0.0 1.0 0.00 0.00 0.00 82 1013.4
20260502062355 52 32 0.0 1.0 0.00 0.00 0.00 82 1013.5
20260502061854 53 66 0.0 1.0 0.00 0.00 0.00 81 1013.7
20260502061351 53 67 2.0 2.0 0.00 0.00 0.00 81 1013.6
20260502060847 53 32 0.0 1.0 0.00 0.00 0.00 80 1013.7
20260502060342 53 25 0.0 2.0 0.00 0.00 0.00 80 1013.8
20260502055840 54 132 0.0 1.0 0.00 0.00 0.00 79 1013.9
20260502055338 54 143 0.0 1.0 0.00 0.00 0.00 79 1013.9
20260502054837 54 57 0.0 0.0 0.00 0.00 0.00 78 1013.9
20260502054334 54 150 0.0 1.0 0.00 0.00 0.00 78 1014.1
20260502053831 55 312 0.0 1.0 0.00 0.00 0.00 78 1013.9
20260502053328 55 357 1.0 2.0 0.00 0.00 0.00 77 1014.0
20260502052826 55 19 1.0 2.0 0.00 0.00 0.00 77 1013.6
20260502052324 55 253 1.0 2.0 0.00 0.00 0.00 76 1013.5
20260502051821 55 243 2.0 2.0 0.00 0.00 0.00 76 1013.7
20260502051320 55 221 2.0 3.0 0.00 0.00 0.00 76 1013.7
20260502050816 55 157 0.0 2.0 0.00 0.00 0.00 76 1013.8
20260502050312 55 211 0.0 2.0 0.00 0.00 0.00 76 1013.9
20260502045810 55 323 1.0 2.0 0.00 0.00 0.00 76 1013.6
20260502045306 55 218 3.0 3.0 0.00 0.00 0.00 75 1013.7
20260502044804 55 198 0.0 2.0 0.00 0.00 0.00 75 1013.6
20260502044259 55 297 0.0 2.0 0.00 0.00 0.00 75 1013.8
20260502043757 55 242 0.0 3.0 0.00 0.00 0.00 75 1013.8
20260502043254 56 106 1.0 3.0 0.00 0.00 0.00 74 1013.8
20260502042753 56 142 0.0 3.0 0.00 0.00 0.00 74 1013.9
20260502042251 56 239 2.0 2.0 0.00 0.00 0.00 74 1013.9
20260502041749 56 162 2.0 2.0 0.00 0.00 0.00 74 1013.7
20260502041246 56 190 2.0 3.0 0.00 0.00 0.00 73 1013.8
20260502040743 56 44 0.0 5.0 0.00 0.00 0.00 73 1013.9
20260502040239 56 167 0.0 2.0 0.00 0.00 0.00 72 1013.7
20260502035735 57 252 2.0 5.0 0.00 0.00 0.00 72 1013.7
20260502035232 57 29 0.0 2.0 0.00 0.00 0.00 72 1013.9
20260502034730 57 140 0.0 3.0 0.00 0.00 0.00 71 1013.8
20260502034228 57 256 0.0 3.0 0.00 0.00 0.00 70 1013.7
20260502033726 57 164 2.0 3.0 0.00 0.00 0.00 69 1013.7
20260502033223 57 160 3.0 4.0 0.00 0.00 0.00 69 1013.7
20260502032720 57 142 2.0 3.0 0.00 0.00 0.00 68 1013.6
20260502032215 58 154 2.0 3.0 0.00 0.00 0.00 67 1013.5
20260502031714 57 132 2.0 2.0 0.00 0.00 0.00 67 1013.6
20260502031212 58 137 1.0 2.0 0.00 0.00 0.00 67 1013.2
20260502030710 58 246 0.0 2.0 0.00 0.00 0.00 66 1013.5
20260502030208 58 331 0.0 2.0 0.00 0.00 0.00 66 1013.4
20260502025704 58 183 2.0 2.0 0.00 0.00 0.00 65 1013.2
20260502025202 58 180 2.0 4.0 0.00 0.00 0.00 64 1013.2
20260502024700 58 100 0.0 3.0 0.00 0.00 0.00 64 1013.2
20260502024158 58 144 0.0 2.0 0.00 0.00 0.00 64 1013.3
20260502023656 59 330 2.0 2.0 0.00 0.00 0.00 63 1013.3
20260502023153 59 214 1.0 4.0 0.00 0.00 0.00 62 1013.4
20260502022650 59 213 2.0 3.0 0.00 0.00 0.00 62 1013.1
20260502022147 59 222 2.0 7.0 0.00 0.00 0.00 61 1013.3